Location: Unspecified
(0.0000°N, 0.0000°E)
Time: 14:08:09
(UTC+00:00)

S-56A Canister/Altair - Visible Passes

Search period start: 01 August 2021 00:00
Search period end: 11 August 2021 00:00
Orbit: 631 x 2501 km, 38.9° (Epoch: 31 July)

Date Brightness Start Highest point End Pass type
(mag) Time Alt. Az. Time Alt. Az. Time Alt. Az.
01 Aug 11.1 19:33:18 10° N 19:38:21 13° NNE 19:42:55 10° NE visible
01 Aug 10.4 21:35:51 10° NNW 21:42:52 30° N 21:42:52 30° N visible
02 Aug 11.3 19:00:26 10° N 19:04:32 12° NNE 19:08:22 10° NE visible
02 Aug 10.2 21:02:23 10° NNW 21:11:49 33° NNE 21:11:49 33° NNE visible
02 Aug 11.4 23:08:36 10° NW 23:09:13 12° WNW 23:09:13 12° WNW visible
03 Aug 11.4 18:28:05 10° N 18:30:38 11° NNE 18:33:05 10° NNE visible
03 Aug 10.2 20:28:55 10° NNW 20:40:12 31° NNE 20:40:48 31° NE visible
03 Aug 11.0 22:34:48 10° NW 22:38:14 21° NW 22:38:14 21° NW visible
04 Aug 10.3 19:55:30 10° NNW 20:06:43 29° NNE 20:09:51 26° NE visible
04 Aug 10.5 22:01:01 10° NW 22:07:16 33° NW 22:07:16 33° NW visible
05 Aug 10.5 19:22:07 10° NNW 19:33:09 26° NNE 19:38:57 18° ENE visible
05 Aug 9.9 21:27:16 10° NW 21:36:23 48° NW 21:36:23 48° NW visible
06 Aug 10.8 18:48:49 10° NNW 18:59:29 24° NNE 19:08:06 11° ENE visible
06 Aug 9.5 20:53:34 10° NW 21:05:32 63° N 21:05:32 63° N visible
06 Aug 11.4 23:02:33 10° WNW 23:02:59 11° WNW 23:02:59 11° WNW visible
07 Aug 10.9 18:15:36 10° NNW 18:25:45 21° NNE 18:34:40 10° ENE visible
07 Aug 9.4 20:19:54 10° NW 20:33:49 61° NE 20:34:45 60° ENE visible
07 Aug 11.0 22:28:15 10° WNW 22:32:12 21° W 22:32:12 21° W visible
08 Aug 9.6 19:46:19 10° NW 20:00:24 55° NE 20:04:02 43° E visible
08 Aug 10.5 21:54:03 10° WNW 22:01:29 34° W 22:01:29 34° W visible
09 Aug 10.0 19:12:49 10° NNW 19:26:54 49° NE 19:33:22 28° E visible
09 Aug 9.9 21:19:55 10° WNW 21:30:49 51° W 21:30:49 51° W visible
10 Aug 10.3 18:39:23 10° NNW 18:53:18 44° NE 19:02:45 16° E visible
10 Aug 9.5 20:45:55 10° WNW 20:59:54 66° SW 21:00:12 66° SW visible
